Location: Saint-Restitut
(44.3351°N, 4.7915°E)
Time: 11:57:48
(UTC+00:00)

Cosmos 1553 Rocket - Pass Details

Date: 03 February 2023
Orbit: 942 x 1007 km, 82.9° (Epoch: 19 March)

Event Time Altitude Azimuth Distance (km) Brightness Sun altitude
Rises 17:52:33 0° 166° (SSE) 3,594 7.0 -11.0°
Reaches altitude 10° 17:55:07 10° 161° (SSE) 2,657 6.2 -11.5°
Maximum altitude 18:00:50 46° 90° (E) 1,266 4.2 -12.5°
Drops below altitude 10° 18:06:39 10° 19° (NNE) 2,702 6.0 -13.5°
Sets 18:09:16 0° 14° (NNE) 3,662 6.8 -14.0°
